Voltar ao catálogo

TITAN 3C TRANSTAGE R/B

AtivoMEO
NORAD 4632·ROCKET BODY·🇺🇸 United States

Lançado Nov 6, 1970 de Cape Canaveral Space Force Station

Loading…

Próximas Passagens (próximas 24 horas)

TLE

AtualizadoSource: Space-Track

Época: Sep 14, 2026, 10:31 UTC

1 04632U 70093B   26257.43869691 -.00000163  00000-0  00000-0 0  9993
2 04632  15.2562  34.2226 1367876 281.5911  79.7022  1.20232082143489

Acompanhe TITAN 3C TRANSTAGE R/B em tempo real com AllMySat

Download on the App Store